Location: Dzierzno
(50.6159°N, 19.2852°E)
Time: 06:51:22
(UTC+00:00)

Cosmos 2082 Rocket - Pass Details

Date: 18 November 2025
Orbit: 834 x 851 km, 71.0° (Epoch: 06 December)

Event Time Altitude Azimuth Distance (km) Brightness Sun altitude
Rises 15:47:34 0° 332° (NNW) 3,394 5.5 -8.7°
Reaches altitude 10° 15:50:06 10° 337° (NNW) 2,456 4.7 -9.1°
Maximum altitude 15:55:34 50° 53° (NE) 1,055 2.4 -9.9°
Drops below altitude 10° 16:01:00 10° 129° (SE) 2,444 4.3 -10.7°
Sets 16:03:31 0° 134° (SE) 3,375 5.0 -11.1°
